�������l�o���
Date,Time,MP-1(��Sv/h),MP-2(��Sv/h),MP-3(��Sv/h),MP-4(��Sv/h),MP-5(��Sv/h),MP-6(��Sv/h),MP-7(��Sv/h),MP-8(��Sv/h),����,����(m/s),���J
2020/07/15,00:00,0.639,0.900,0.579,1.099,0.777,0.383,0.653,0.620,�k�k��,8.4,�L
2020/07/15,00:10,0.639,0.904,0.578,1.096,0.777,0.383,0.652,0.621,�k�k��,7.9,�L
2020/07/15,00:20,0.638,0.902,0.577,1.097,0.775,0.384,0.653,0.621,�k�k��,6.7,�L
2020/07/15,00:30,0.639,0.902,0.578,1.100,0.776,0.383,0.653,0.620,�k�k��,6.8,��
2020/07/15,00:40,0.639,0.903,0.578,1.100,0.776,0.382,0.653,0.621,�k�k��,6.6,��
2020/07/15,00:50,0.637,0.903,0.579,1.101,0.777,0.382,0.652,0.620,�k�k��,6.8,�L
2020/07/15,01:00,0.638,0.903,0.579,1.098,0.776,0.382,0.653,0.620,�k�k��,6.3,�L
2020/07/15,01:10,0.637,0.904,0.579,1.097,0.775,0.384,0.651,0.619,�k�k��,7.0,�L
2020/07/15,01:20,0.638,0.902,0.578,1.097,0.775,0.383,0.651,0.620,�k�k��,6.8,�L
2020/07/15,01:30,0.636,0.900,0.577,1.097,0.777,0.383,0.653,0.618,�k�k��,6.5,�L
2020/07/15,01:40,0.638,0.899,0.577,1.097,0.775,0.384,0.650,0.618,�k�k��,8.4,�L
2020/07/15,01:50,0.637,0.897,0.577,1.094,0.773,0.384,0.652,0.620,�k�k��,7.3,�L
2020/07/15,02:00,0.637,0.899,0.576,1.094,0.774,0.382,0.651,0.619,�k�k��,8.4,�L
2020/07/15,02:10,0.635,0.895,0.578,1.092,0.774,0.383,0.649,0.617,�k�k��,8.5,�L
2020/07/15,02:20,0.636,0.894,0.573,1.093,0.770,0.381,0.649,0.619,�k�k��,6.5,�L
2020/07/15,02:30,0.635,0.896,0.575,1.090,0.771,0.381,0.650,0.618,�k,9.1,�L
2020/07/15,02:40,0.634,0.896,0.574,1.090,0.770,0.382,0.651,0.617,�k,9.9,�L
2020/07/15,02:50,0.635,0.894,0.576,1.090,0.769,0.382,0.651,0.617,�k,9.5,�L
2020/07/15,03:00,0.635,0.897,0.577,1.092,0.770,0.381,0.650,0.617,�k�k��,9.3,�L
2020/07/15,03:10,0.636,0.896,0.575,1.090,0.772,0.382,0.650,0.618,�k�k��,10.3,�L
2020/07/15,03:20,0.636,0.898,0.574,1.087,0.770,0.381,0.651,0.617,�k�k��,9.3,�L
2020/07/15,03:30,0.638,0.899,0.577,1.093,0.771,0.383,0.651,0.618,�k�k��,8.9,�L
2020/07/15,03:40,0.637,0.899,0.577,1.090,0.773,0.382,0.650,0.619,�k�k��,9.6,�L
2020/07/15,03:50,0.636,0.900,0.576,1.091,0.770,0.382,0.652,0.617,�k�k��,9.4,�L
2020/07/15,04:00,0.637,0.899,0.575,1.092,0.773,0.382,0.651,0.620,�k�k��,9.4,�L
2020/07/15,04:10,0.638,0.900,0.576,1.091,0.772,0.383,0.650,0.618,�k�k��,7.8,�L
2020/07/15,04:20,0.635,0.898,0.575,1.090,0.769,0.382,0.652,0.617,�k,8.5,�L
2020/07/15,04:30,0.636,0.899,0.576,1.091,0.770,0.381,0.650,0.619,�k,8.5,�L
2020/07/15,04:40,0.636,0.899,0.577,1.088,0.771,0.384,0.649,0.617,�k,9.2,�L
2020/07/15,04:50,0.635,0.901,0.576,1.089,0.769,0.382,0.651,0.617,�k,7.3,�L
2020/07/15,05:00,0.635,0.899,0.575,1.090,0.769,0.383,0.650,0.618,�k,7.6,�L
2020/07/15,05:10,0.636,0.900,0.576,1.089,0.768,0.382,0.649,0.617,�k,10.0,�L
2020/07/15,05:20,0.634,0.897,0.576,1.087,0.770,0.381,0.648,0.617,�k,8.7,�L
2020/07/15,05:30,0.635,0.897,0.575,1.086,0.767,0.381,0.649,0.613,�k,9.3,�L
2020/07/15,05:40,0.633,0.895,0.572,1.083,0.766,0.381,0.650,0.615,�k,10.3,�L
2020/07/15,05:50,0.631,0.893,0.575,1.081,0.767,0.380,0.649,0.614,�k,10.3,�L
2020/07/15,06:00,0.629,0.890,0.572,1.077,0.763,0.380,0.646,0.614,�k,9.3,�L
2020/07/15,06:10,0.630,0.889,0.572,1.074,0.763,0.378,0.646,0.614,�k,9.5,�L
2020/07/15,06:20,0.629,0.892,0.572,1.074,0.761,0.378,0.646,0.615,�k,9.1,�L
2020/07/15,06:30,0.630,0.890,0.570,1.075,0.764,0.379,0.646,0.614,�k,8.1,�L
2020/07/15,06:40,0.630,0.887,0.570,1.074,0.763,0.378,0.646,0.612,�k,8.3,�L
2020/07/15,06:50,0.629,0.887,0.567,1.073,0.762,0.379,0.645,0.612,�k,8.7,�L
2020/07/15,07:00,0.627,0.888,0.569,1.072,0.760,0.378,0.646,0.613,�k,9.1,�L
2020/07/15,07:10,0.629,0.886,0.566,1.072,0.761,0.377,0.645,0.612,�k,8.0,�L
2020/07/15,07:20,0.627,0.889,0.565,1.070,0.759,0.375,0.644,0.611,�k,9.3,�L
2020/07/15,07:30,0.629,0.885,0.566,1.070,0.759,0.377,0.645,0.609,�k,9.1,�L
2020/07/15,07:40,0.629,0.888,0.566,1.072,0.759,0.377,0.644,0.610,�k,8.8,�L
2020/07/15,07:50,0.630,0.886,0.568,1.070,0.756,0.378,0.645,0.610,�k,9.1,�L
2020/07/15,08:00,0.629,0.885,0.566,1.071,0.758,0.378,0.644,0.610,�k,10.7,�L
2020/07/15,08:10,0.628,0.883,0.567,1.070,0.756,0.378,0.646,0.611,�k,8.2,�L
2020/07/15,08:20,0.629,0.885,0.566,1.070,0.757,0.378,0.644,0.611,�k,8.7,�L
2020/07/15,08:30,0.628,0.883,0.568,1.069,0.758,0.377,0.644,0.609,�k,9.5,�L
2020/07/15,08:40,0.629,0.880,0.568,1.067,0.754,0.377,0.643,0.610,�k,7.3,�L
2020/07/15,08:50,0.628,0.880,0.566,1.067,0.754,0.377,0.643,0.610,�k,8.8,�L
2020/07/15,09:00,0.629,0.881,0.567,1.064,0.755,0.377,0.642,0.609,�k,8.2,�L
2020/07/15,09:10,0.632,0.880,0.567,1.066,0.754,0.377,0.642,0.609,�k,9.0,�L
2020/07/15,09:20,0.629,0.880,0.568,1.067,0.753,0.379,0.642,0.610,�k,8.0,�L
2020/07/15,09:30,0.629,0.878,0.567,1.065,0.754,0.378,0.642,0.609,�k,9.4,�L
2020/07/15,09:40,0.628,0.877,0.568,1.064,0.752,0.378,0.640,0.611,�k,8.2,�L
2020/07/15,09:50,0.628,0.876,0.568,1.065,0.752,0.377,0.642,0.609,�k,7.8,�L
2020/07/15,10:00,0.626,0.876,0.567,1.064,0.752,0.377,0.641,0.609,�k,6.6,�L
2020/07/15,10:10,0.625,0.873,0.567,1.063,0.750,0.377,0.639,0.609,�k,8.0,�L
2020/07/15,10:20,0.625,0.874,0.561,1.059,0.750,0.376,0.639,0.609,�k,8.8,�L
2020/07/15,10:30,0.629,0.876,0.562,1.062,0.749,0.376,0.640,0.609,�k,10.2,�L
2020/07/15,10:40,0.629,0.877,0.566,1.065,0.750,0.377,0.639,0.608,�k,8.5,�L
2020/07/15,10:50,0.630,0.878,0.567,1.065,0.751,0.378,0.640,0.610,�k,8.3,�L
2020/07/15,11:00,0.630,0.875,0.567,1.063,0.749,0.378,0.642,0.609,�k�k��,7.9,�L
2020/07/15,11:10,0.630,0.876,0.567,1.064,0.749,0.376,0.640,0.609,�k,7.7,�L
2020/07/15,11:20,0.629,0.877,0.567,1.062,0.748,0.377,0.642,0.610,�k,8.1,�L
2020/07/15,11:30,0.627,0.877,0.568,1.064,0.744,0.377,0.639,0.610,�k,7.7,�L
2020/07/15,11:40,0.627,0.878,0.568,1.062,0.748,0.378,0.640,0.608,�k,8.6,�L
2020/07/15,11:50,0.626,0.878,0.565,1.063,0.746,0.376,0.639,0.608,�k,9.1,�L
2020/07/15,12:00,0.628,0.880,0.566,1.063,0.746,0.377,0.641,0.609,�k,7.5,�L
2020/07/15,12:10,0.626,0.881,0.566,1.063,0.747,0.377,0.639,0.610,�k,8.7,�L
2020/07/15,12:20,0.628,0.881,0.567,1.064,0.746,0.376,0.640,0.610,�k,9.8,�L
2020/07/15,12:30,0.628,0.881,0.567,1.065,0.745,0.376,0.640,0.608,�k,7.8,�L
2020/07/15,12:40,0.627,0.883,0.566,1.065,0.746,0.376,0.641,0.610,�k,7.6,�L
2020/07/15,12:50,0.629,0.882,0.567,1.066,0.747,0.378,0.640,0.610,�k,7.9,�L
2020/07/15,13:00,0.628,0.884,0.567,1.069,0.746,0.378,0.642,0.609,�k,7.9,�L
2020/07/15,13:10,0.631,0.883,0.565,1.070,0.748,0.376,0.641,0.609,�k,7.4,�L
2020/07/15,13:20,0.631,0.883,0.565,1.071,0.748,0.376,0.641,0.611,�k,7.4,�L
2020/07/15,13:30,0.630,0.880,0.567,1.070,0.749,0.377,0.643,0.608,�k,7.4,�L
2020/07/15,13:40,0.630,0.885,0.567,1.071,0.748,0.376,0.641,0.609,�k,8.2,�L
2020/07/15,13:50,0.631,0.884,0.567,1.072,0.748,0.378,0.642,0.610,�k,7.5,�L
2020/07/15,14:00,0.630,0.881,0.566,1.074,0.749,0.376,0.642,0.612,�k,8.2,�L
2020/07/15,14:10,0.630,0.885,0.569,1.072,0.750,0.378,0.641,0.610,�k,7.0,�L
2020/07/15,14:20,0.630,0.886,0.567,1.071,0.750,0.377,0.643,0.611,�k,8.5,�L
2020/07/15,14:30,0.630,0.889,0.567,1.077,0.751,0.378,0.643,0.610,�k,8.2,�L
2020/07/15,14:40,0.633,0.887,0.568,1.077,0.751,0.378,0.643,0.611,�k,9.3,�L
2020/07/15,14:50,0.633,0.890,0.569,1.077,0.752,0.378,0.645,0.612,�k,9.7,�L
2020/07/15,15:00,0.632,0.891,0.568,1.079,0.750,0.378,0.643,0.611,�k,7.9,�L
2020/07/15,15:10,0.634,0.889,0.570,1.078,0.753,0.377,0.645,0.611,�k,9.4,�L
2020/07/15,15:20,0.633,0.891,0.569,1.079,0.751,0.379,0.645,0.612,�k,7.2,�L
2020/07/15,15:30,0.632,0.892,0.569,1.082,0.752,0.378,0.646,0.613,�k,6.8,�L
2020/07/15,15:40,0.634,0.893,0.570,1.081,0.753,0.379,0.645,0.611,�k,7.2,�L
2020/07/15,15:50,0.634,0.892,0.569,1.083,0.754,0.380,0.647,0.612,�k,5.4,�L
2020/07/15,16:00,0.634,0.894,0.569,1.086,0.753,0.380,0.646,0.613,�k,7.1,�L
2020/07/15,16:10,0.635,0.892,0.569,1.082,0.753,0.381,0.645,0.613,�k,6.2,�L
2020/07/15,16:20,0.634,0.893,0.574,1.082,0.752,0.381,0.645,0.613,�k,6.0,�L
2020/07/15,16:30,0.631,0.893,0.578,1.082,0.752,0.380,0.645,0.612,�k�k��,7.8,�L
2020/07/15,16:40,0.634,0.893,0.573,1.079,0.753,0.380,0.643,0.614,�k�k��,6.7,�L
2020/07/15,16:50,0.633,0.890,0.570,1.081,0.754,0.379,0.645,0.612,�k,6.2,�L
2020/07/15,17:00,0.633,0.892,0.569,1.080,0.754,0.380,0.645,0.613,�k,5.5,�L
2020/07/15,17:10,0.632,0.891,0.567,1.081,0.753,0.379,0.644,0.611,�k,5.7,�L
2020/07/15,17:20,0.633,0.892,0.569,1.081,0.752,0.380,0.644,0.612,�k,5.9,�L
2020/07/15,17:30,0.632,0.892,0.569,1.080,0.753,0.377,0.644,0.611,�k�k��,4.9,�L
2020/07/15,17:40,0.634,0.892,0.572,1.080,0.752,0.379,0.645,0.612,�k,4.5,�L
2020/07/15,17:50,0.632,0.894,0.569,1.080,0.752,0.380,0.646,0.613,�k�k��,5.6,�L
2020/07/15,18:00,0.632,0.892,0.569,1.081,0.753,0.379,0.645,0.612,�k,5.4,�L
2020/07/15,18:10,0.633,0.893,0.569,1.079,0.753,0.379,0.645,0.613,�k,4.9,�L
2020/07/15,18:20,0.632,0.893,0.570,1.078,0.751,0.379,0.645,0.611,�k,4.1,�L
2020/07/15,18:30,0.631,0.892,0.569,1.081,0.751,0.378,0.643,0.612,�k�k��,5.7,�L
2020/07/15,18:40,0.630,0.890,0.570,1.077,0.753,0.378,0.643,0.613,�k�k��,5.3,�L
2020/07/15,18:50,0.633,0.892,0.570,1.076,0.753,0.380,0.644,0.613,�k,5.1,�L
2020/07/15,19:00,0.633,0.889,0.567,1.079,0.752,0.378,0.645,0.612,�k�k��,5.2,�L
2020/07/15,19:10,0.631,0.891,0.568,1.080,0.751,0.379,0.643,0.612,�k�k��,4.9,�L
2020/07/15,19:20,0.632,0.891,0.567,1.079,0.753,0.378,0.644,0.613,�k�k��,5.2,�L
2020/07/15,19:30,0.631,0.890,0.569,1.080,0.753,0.379,0.644,0.613,�k�k��,4.9,�L
2020/07/15,19:40,0.632,0.892,0.569,1.078,0.754,0.378,0.644,0.612,�k�k��,5.2,�L
2020/07/15,19:50,0.632,0.892,0.569,1.083,0.755,0.379,0.645,0.614,�k�k��,5.9,�L
2020/07/15,20:00,0.632,0.891,0.570,1.077,0.753,0.378,0.644,0.614,�k�k��,6.4,�L
2020/07/15,20:10,0.631,0.891,0.570,1.081,0.753,0.378,0.644,0.614,�k�k��,5.7,�L
2020/07/15,20:20,0.633,0.891,0.570,1.079,0.754,0.380,0.643,0.614,�k,6.3,�L
2020/07/15,20:30,0.632,0.890,0.569,1.081,0.755,0.377,0.643,0.612,�k,5.8,�L
2020/07/15,20:40,0.632,0.893,0.570,1.080,0.755,0.379,0.644,0.614,�k,6.2,�L
2020/07/15,20:50,0.633,0.891,0.570,1.080,0.755,0.378,0.645,0.615,�k�k��,6.1,�L
2020/07/15,21:00,0.632,0.893,0.569,1.081,0.753,0.380,0.644,0.614,�k�k��,5.8,�L
2020/07/15,21:10,0.632,0.893,0.569,1.079,0.754,0.379,0.645,0.615,�k�k��,5.2,�L
2020/07/15,21:20,0.632,0.893,0.569,1.082,0.756,0.378,0.642,0.615,�k�k��,5.4,�L
2020/07/15,21:30,0.633,0.892,0.570,1.081,0.755,0.379,0.645,0.614,�k�k��,3.9,�L
2020/07/15,21:40,0.632,0.892,0.567,1.081,0.755,0.378,0.647,0.613,�k��,5.0,�L
2020/07/15,21:50,0.631,0.891,0.569,1.080,0.754,0.379,0.643,0.614,�k��,4.2,�L
2020/07/15,22:00,0.631,0.892,0.571,1.079,0.754,0.379,0.643,0.614,�k�k��,4.6,�L
2020/07/15,22:10,0.631,0.889,0.570,1.076,0.751,0.381,0.642,0.612,�k��,5.0,�L
2020/07/15,22:20,0.627,0.885,0.570,1.076,0.749,0.380,0.642,0.612,�k��,5.2,�L
2020/07/15,22:30,0.629,0.886,0.571,1.069,0.748,0.382,0.640,0.612,�k��,5.4,�L
2020/07/15,22:40,0.630,0.885,0.570,1.071,0.751,0.382,0.643,0.613,�k��,4.8,�L
2020/07/15,22:50,0.632,0.887,0.571,1.073,0.750,0.382,0.643,0.610,�k��,4.0,�L
2020/07/15,23:00,0.631,0.887,0.571,1.073,0.748,0.380,0.640,0.610,�k��,5.8,�L
2020/07/15,23:10,0.631,0.883,0.571,1.069,0.747,0.382,0.641,0.608,�k�k��,5.8,�L
2020/07/15,23:20,0.625,0.877,0.569,1.062,0.744,0.380,0.640,0.609,�k�k��,5.0,�L
2020/07/15,23:30,0.625,0.878,0.568,1.062,0.744,0.380,0.638,0.607,�k�k��,4.8,�L
2020/07/15,23:40,0.629,0.881,0.568,1.065,0.743,0.381,0.638,0.609,�k�k��,4.8,�L
2020/07/15,23:50,0.630,0.882,0.571,1.067,0.744,0.381,0.638,0.609,�k�k��,5.2,�L
